[[{"header":{"parameterUnit":"m.s-1","parameterCategory":2,"la1":30.2991,"la2":30.254,"lo1":-89.0895,"lo2":-89.0444,"dy":0.0017,"dx":0.0017,"nx":28,"ny":28,"refTime":"2024-07-02T03:00:00:Z","depth":"0","parameterNumber":2,"parameterNumberName":"U-component_of_CURRENTS"},"data":[0,0,0,0,0,0,0,0,0,0,0,0,0,0,0,0,0,0,0,0,0,0,0,0,0,0,0,0,0,0,0,0,0,0,0,0,0,0,0,0,0,0,0,0,0,0,0,0,0,0,0,0,0,0,0,0,0,0,-0.1596,-0.1597,0,-0.1594,-0.1594,-0.1593,-0.154,-0.1539,-0.1538,-0.1537,-0.1569,-0.157,-0.1572,0,0,0,0,0,0,0,0,0,0,0,0,0,-0.162,-0.1619,-0.1596,-0.1597,-0.1597,-0.1594,-0.1594,-0.1593,-0.154,-0.1539,-0.1538,-0.1537,-0.1568,-0.157,-0.1572,0,0,0,0,0,0,0,0,0,0,0,0,0,-0.1608,-0.1619,-0.1596,-0.1574,-0.1572,-0.1594,-0.1594,-0.1593,-0.154,-0.1539,-0.1538,-0.1536,-0.1567,-0.157,-0.1572,-0.1617,0,0,-0.158,-0.1581,0,0,0,0,0,0,0,0,-0.1609,-0.1607,-0.1577,-0.1575,-0.1573,-0.157,-0.1614,-0.1605,-0.1541,-0.1548,-0.1537,-0.1536,-0.1576,-0.1578,-0.1574,-0.1619,-0.162,-0.1581,-0.1582,-0.1583,-0.1584,0,0,0,0,0,0,0,-0.161,-0.1607,-0.1591,-0.1577,-0.1575,-0.1586,-0.1582,-0.1612,-0.1567,-0.1547,-0.1544,-0.1552,-0.1575,-0.1571,-0.1574,-0.162,-0.158,-0.1583,-0.1584,-0.1585,-0.1807,-0.1811,0,0,0,0,0,0,-0.1617,-0.1608,-0.1591,-0.1591,-0.1593,-0.1587,-0.1582,-0.1569,-0.1566,-0.1565,-0.1553,-0.1549,-0.1568,-0.1571,-0.1575,-0.168,-0.1583,-0.1586,-0.1587,-0.1803,-0.1808,-0.1812,0,0,0,0,0,0,-0.1617,-0.1615,-0.1591,-0.1604,-0.1603,-0.1588,-0.1574,-0.157,-0.1555,-0.1571,-0.1569,-0.1542,-0.1567,-0.1572,-0.1614,-0.1679,-0.1587,-0.1589,-0.1797,-0.1804,-0.181,-0.1858,0,0,0,0,0,0,-0.1618,-0.1614,-0.1599,-0.1604,-0.1602,-0.1595,-0.1576,-0.1571,-0.1565,-0.1559,-0.1562,-0.1563,-0.1566,-0.161,-0.1616,-0.1681,-0.1591,-0.1792,-0.18,-0.1808,-0.1851,-0.1865,-0.1878,0,0,0,0,0,-0.1618,-0.1597,-0.1598,-0.1596,-0.1583,-0.1596,-0.1595,-0.1578,-0.1566,-0.1559,-0.1579,-0.1563,-0.1668,-0.1614,-0.1621,-0.1688,-0.1788,-0.1798,-0.1807,-0.1845,-0.1862,-0.1877,0,0,0,0,0,0,-0.1588,-0.1591,-0.1591,-0.1568,-0.1582,-0.1588,-0.1579,-0.158,-0.1587,-0.1582,-0.1592,-0.1597,-0.1669,-0.168,-0.1621,-0.1786,-0.1737,-0.1748,-0.1764,-0.178,-0.1793,-0.1733,-0.1593,0,0,0,0,0,-0.1582,-0.1563,-0.1583,-0.1562,-0.1572,-0.1579,-0.158,-0.1576,-0.1591,-0.1589,-0.1605,-0.165,-0.172,-0.1743,-0.1788,-0.1858,-0.1796,-0.1921,-0.1934,-0.1945,-0.1908,-0.192,-0.1928,-0.1844,-0.1844,-0.1844,0,0,-0.156,-0.1563,-0.1548,-0.1556,-0.1562,-0.1575,-0.1573,-0.1574,-0.1592,-0.1598,-0.1624,-0.1683,-0.1749,-0.1835,-0.1872,-0.1846,-0.1928,-0.1957,-0.1965,-0.1921,-0.1931,-0.1938,-0.1944,-0.1851,-0.185,-0.1849,0,0,-0.1529,-0.1519,-0.1507,-0.1523,-0.1544,-0.1558,-0.1562,-0.1583,-0.1596,-0.1635,-0.1682,-0.1777,-0.1831,-0.1923,-0.1972,-0.2092,-0.1997,-0.2122,-0.2134,-0.2149,-0.2153,-0.2156,-0.2026,-0.2017,-0.213,-0.213,-0.213,0,-0.1506,-0.1494,-0.1507,-0.1516,-0.1525,-0.1553,-0.1559,-0.1589,-0.1623,-0.1651,-0.1642,-0.1799,-0.1879,-0.2015,-0.2079,-0.212,-0.2039,-0.2058,-0.2157,-0.216,-0.2162,-0.2028,-0.2018,-0.2133,-0.2133,-0.2133,-0.2132,0,-0.1478,-0.1476,-0.1474,-0.1492,-0.1508,-0.1513,-0.1568,-0.1595,-0.1619,-0.1656,-0.1763,-0.1871,-0.1954,-0.2048,-0.2097,-0.2204,-0.2106,-0.2163,-0.2092,-0.2172,-0.2027,-0.2015,-0.2138,-0.2137,-0.2136,-0.2135,0,0,-0.1398,-0.1444,-0.144,-0.145,-0.1494,-0.1498,-0.1553,-0.1609,-0.1628,-0.1705,-0.1726,-0.1947,-0.1984,-0.2047,-0.2152,-0.2205,-0.2189,-0.2184,-0.2183,-0.2006,-0.2077,-0.1999,-0.1977,-0.224,-0.2241,-0.2241,-0.1942,0,-0.1371,-0.1378,-0.1412,-0.1418,-0.1429,-0.1483,-0.1522,-0.1581,-0.1629,-0.1657,-0.1803,-0.187,-0.1992,-0.2036,-0.2114,-0.2183,-0.2168,-0.2255,-0.2066,-0.2057,-0.1944,-0.1969,-0.1901,-0.1631,-0.193,-0.1928,-0.1926,0,-0.1329,-0.1341,-0.135,-0.1385,-0.1392,-0.1405,-0.145,-0.1488,-0.1571,-0.1605,-0.1693,-0.176,-0.1892,-0.1958,-0.2033,-0.2061,-0.2051,-0.208,-0.2071,-0.1967,-0.1962,-0.1621,-0.1597,-0.1639,-0.1907,-0.1909,-0.191,0,-0.126,-0.1289,-0.1292,-0.1304,-0.1358,-0.1373,-0.1392,-0.1471,-0.1499,-0.1553,-0.1556,-0.1677,-0.1723,-0.177,-0.1874,-0.1921,-0.1867,-0.1943,-0.1826,-0.1813,-0.1703,-0.1683,-0.1662,-0.1923,-0.1923,-0.1924,-0.1925,0,-0.1215,-0.1203,-0.1257,-0.1257,-0.1247,-0.1302,-0.1299,-0.1347,-0.1391,-0.1404,-0.1515,-0.1539,-0.1684,-0.1699,-0.1761,-0.1733,-0.1768,-0.1779,-0.1753,-0.1715,-0.1701,-0.1692,-0.1741,-0.1913,-0.1915,-0.1917,-0.1919,0,-0.1133,-0.1175,-0.1174,-0.1218,-0.1221,-0.1207,-0.1225,-0.1226,-0.1284,-0.1285,-0.1294,-0.1403,-0.1416,-0.1495,-0.1541,-0.1579,-0.155,-0.1545,-0.1418,-0.1387,-0.1334,-0.1388,-0.127,-0.1237,-0.132,-0.1317,-0.1314,0,-0.1088,-0.1084,-0.112,-0.1111,-0.1126,-0.1112,-0.1106,-0.1162,-0.1165,-0.1217,-0.1208,-0.1224,-0.1248,-0.1232,-0.1265,-0.122,-0.1364,-0.1151,-0.1298,-0.1281,-0.1324,-0.1391,-0.1379,-0.1117,-0.1113,-0.1109,-0.1106,0,-0.0987,-0.1009,-0.1006,-0.1005,-0.0996,-0.0983,-0.0978,-0.0965,-0.1023,-0.1029,-0.1038,-0.1053,-0.1034,-0.0996,-0.0959,-0.0984,-0.1148,-0.1077,-0.1137,-0.1209,-0.1203,-0.1174,-0.1268,-0.1076,-0.1079,-0.1081,-0.1083,-0.1084,-0.089,-0.0862,-0.0875,-0.086,-0.0862,-0.0847,-0.0801,-0.0802,-0.0779,-0.0753,-0.0839,-0.0792,-0.0832,-0.0777,-0.0795,-0.0799,-0.0869,-0.0851,-0.0907,-0.0968,-0.1,-0.0957,-0.0734,-0.0735,-0.0736,-0.0737,-0.0738,0,-0.0759,-0.0744,-0.0724,-0.0714,-0.0697,-0.074,-0.0708,-0.0651,-0.0582,-0.0545,-0.0529,-0.05,-0.053,-0.0604,-0.0643,-0.066,-0.0711,-0.0709,-0.0824,-0.0815,-0.0818,-0.0882,-0.0592,-0.0592,-0.0592,-0.0592,-0.0592,-0.0592,-0.0689,-0.0622,-0.0618,-0.0555,-0.056,-0.0513,-0.0484,-0.0402,-0.0343,-0.0204,-0.0129,-0.0111,-0.0295,-0.0635,-0.0755,-0.0734,-0.0788,-0.0734,-0.0792,-0.0859,-0.088,-0.09,-0.0975,-0.0709,-0.0709,-0.0762,-0.0763,-0.0763]},{"header":{"parameterUnit":"m.s-1","parameterCategory":2,"la1":30.2991,"la2":30.254,"lo1":-89.0895,"lo2":-89.0444,"dy":0.0017,"dx":0.0017,"nx":28,"ny":28,"refTime":"2024-07-02T03:00:00:Z","depth":"0","parameterNumber":3,"parameterNumberName":"V-component_of_CURRENTS"},"data":[0,0,0,0,0,0,0,0,0,0,0,0,0,0,0,0,0,0,0,0,0,0,0,0,0,0,0,0,0,0,0,0,0,0,0,0,0,0,0,0,0,0,0,0,0,0,0,0,0,0,0,0,0,0,0,0,0,0,0.0421,0.0421,0,0.0459,0.046,0.046,0.0528,0.0529,0.0531,0.0532,0.0621,0.0622,0.0623,0,0,0,0,0,0,0,0,0,0,0,0,0,0.0367,0.0368,0.0421,0.0421,0.0421,0.0459,0.046,0.046,0.0528,0.0529,0.0531,0.0532,0.062,0.0622,0.0623,0,0,0,0,0,0,0,0,0,0,0,0,0,0.0397,0.0368,0.0421,0.0459,0.0463,0.0459,0.046,0.046,0.0528,0.053,0.0531,0.0533,0.062,0.0622,0.0624,0.0598,0,0,0.0629,0.063,0,0,0,0,0,0,0,0,0.0395,0.0399,0.0453,0.0457,0.0461,0.049,0.0473,0.0509,0.0527,0.0504,0.0532,0.0534,0.058,0.0585,0.0589,0.0603,0.0606,0.0629,0.063,0.0631,0.0632,0,0,0,0,0,0,0,0.0393,0.0398,0.0437,0.0453,0.0458,0.0461,0.0468,0.048,0.0533,0.0506,0.0511,0.0513,0.0583,0.0587,0.0591,0.0608,0.0629,0.0631,0.0632,0.0633,0.0587,0.0585,0,0,0,0,0,0,0.0387,0.0396,0.0436,0.0438,0.0431,0.0461,0.0468,0.0479,0.0532,0.0541,0.0512,0.0516,0.0583,0.0589,0.0595,0.0538,0.0631,0.0633,0.0634,0.059,0.0587,0.0584,0,0,0,0,0,0,0.0386,0.039,0.0434,0.0416,0.0422,0.046,0.0472,0.0479,0.0484,0.0535,0.0546,0.0509,0.0584,0.0592,0.0587,0.0544,0.0634,0.0636,0.0592,0.0589,0.0586,0.0445,0,0,0,0,0,0,0.0384,0.039,0.0389,0.0416,0.0423,0.0416,0.047,0.0479,0.0482,0.0488,0.0536,0.0546,0.0586,0.0584,0.0589,0.0548,0.0637,0.0595,0.0591,0.0587,0.0452,0.0437,0.0423,0,0,0,0,0,0.0382,0.0367,0.0389,0.0394,0.0424,0.0414,0.0416,0.045,0.048,0.0464,0.0494,0.0545,0.056,0.0583,0.059,0.0548,0.0597,0.0592,0.0587,0.0459,0.044,0.0424,0,0,0,0,0,0,0.0336,0.0373,0.0398,0.0395,0.0399,0.0425,0.0408,0.0437,0.0448,0.0454,0.0514,0.0524,0.0504,0.0541,0.0565,0.0522,0.0587,0.0583,0.0487,0.047,0.0456,0.044,0.0638,0,0,0,0,0,0.0327,0.033,0.0358,0.035,0.0347,0.0377,0.0377,0.0397,0.0413,0.0421,0.0461,0.0487,0.0484,0.049,0.0505,0.0478,0.0571,0.0456,0.0441,0.0429,0.0419,0.0513,0.0507,0.0567,0.0567,0.0567,0,0,0.0312,0.0326,0.0332,0.0341,0.0346,0.0324,0.038,0.0364,0.0343,0.0426,0.0411,0.044,0.0466,0.0436,0.0431,0.0464,0.0465,0.0422,0.0412,0.0409,0.0507,0.0502,0.0497,0.0564,0.0564,0.0565,0,0,0.0257,0.0285,0.0262,0.0263,0.0262,0.0271,0.0263,0.0285,0.0288,0.0272,0.0319,0.0321,0.0336,0.0342,0.0344,0.0258,0.0386,0.0262,0.0176,0.0265,0.0262,0.026,0.0398,0.041,0.0254,0.0254,0.0254,0,0.0235,0.0224,0.0248,0.0219,0.0215,0.0243,0.0211,0.0198,0.022,0.021,0.0249,0.0255,0.0286,0.0235,0.0203,0.0225,0.0321,0.0238,0.0249,0.0249,0.025,0.0392,0.0406,0.0246,0.0247,0.0248,0.0249,0,0.0167,0.0159,0.0135,0.0119,0.0106,0.0082,0.0077,0.0061,0.0077,0.0082,0.0052,0.009,0.0104,0.0097,0.0121,0.011,0.0196,0.0224,0.0298,0.0236,0.0389,0.0407,0.0236,0.0238,0.0241,0.0242,0,0,0.014,0.0099,0.0098,0.008,0.0063,0.0045,-0.0016,-0.0052,-0.0076,-0.0076,-0.0101,-0.0123,-0.0079,-0.0075,-0.004,0.0015,0.0108,0.011,0.0118,0.0256,0.0358,0.0334,0.0354,0.015,0.0152,0.0153,0.0475,0,0.0089,0.0014,0.0017,-0.0041,-0.0077,-0.0068,-0.0114,-0.0147,-0.0156,-0.0175,-0.018,-0.0182,-0.0157,-0.0135,-0.0093,0.0016,0.0144,0.0022,0.0389,0.0401,0.0394,0.0367,0.0374,0.0652,0.0493,0.0496,0.0498,0,0.0038,-0.0002,-0.0076,-0.0108,-0.0119,-0.0147,-0.0191,-0.0228,-0.0273,-0.0271,-0.0296,-0.0272,-0.028,-0.0187,-0.0019,-0.0098,0.0142,0.0267,0.0284,0.0319,0.0407,0.0682,0.0692,0.0813,0.0527,0.0525,0.0523,0,0.0002,-0.0053,-0.0114,-0.0125,-0.0172,-0.0194,-0.0213,-0.0257,-0.0285,-0.0322,-0.032,-0.0334,-0.0311,-0.0125,0.0056,0.0059,0.0309,0.0364,0.0603,0.0608,0.0711,0.0719,0.0883,0.063,0.0629,0.0628,0.0627,0,-0.0042,-0.0074,-0.0129,-0.016,-0.0203,-0.0222,-0.0265,-0.0285,-0.0317,-0.0349,-0.0359,-0.038,-0.0284,-0.0168,0.0054,0.0314,0.0325,0.059,0.0672,0.0661,0.0661,0.0847,0.0882,0.064,0.0638,0.0635,0.0633,0,-0.006,-0.0103,-0.0158,-0.0212,-0.0226,-0.025,-0.028,-0.0313,-0.0329,-0.0364,-0.0372,-0.0405,-0.0312,-0.0159,0.0135,0.032,0.067,0.0749,0.0724,0.0792,0.1053,0.1078,0.1319,0.1411,0.1041,0.1042,0.1043,0,-0.0068,-0.0114,-0.0189,-0.0215,-0.023,-0.0268,-0.0297,-0.0322,-0.035,-0.0382,-0.0402,-0.0357,-0.0364,-0.004,0.0255,0.0626,0.0782,0.0962,0.095,0.1054,0.1146,0.115,0.121,0.1085,0.1087,0.1087,0.1088,0,-0.0068,-0.0105,-0.016,-0.0231,-0.0264,-0.0301,-0.0336,-0.0358,-0.0387,-0.0405,-0.0451,-0.0468,-0.025,-0.0006,0.043,0.068,0.0969,0.0994,0.1123,0.1187,0.1186,0.1317,0.0919,0.1096,0.1096,0.1095,0.1095,0.1094,-0.0051,-0.0083,-0.0173,-0.0239,-0.028,-0.0323,-0.0344,-0.0375,-0.041,-0.0428,-0.0482,-0.0488,-0.0099,0.0396,0.0613,0.1117,0.1106,0.1333,0.1371,0.1378,0.1382,0.0982,0.1201,0.12,0.12,0.12,0.12,0,-0.0034,-0.0096,-0.0167,-0.025,-0.0305,-0.0321,-0.0366,-0.0374,-0.0396,-0.0434,-0.047,-0.0199,0.0219,0.0619,0.1313,0.1526,0.1578,0.1624,0.1664,0.1725,0.1427,0.1336,0.1561,0.1561,0.1561,0.1561,0.1561,0.1561,-0.0024,-0.0094,-0.0161,-0.0261,-0.031,-0.0348,-0.0363,-0.0354,-0.0371,-0.0326,-0.0263,-0.0249,0.0378,0.1249,0.1801,0.1853,0.2014,0.1954,0.2067,0.1868,0.1844,0.1821,0.1745,0.2052,0.2052,0.2362,0.2365,0.2367]}],[{"header":{"parameterUnit":"m.s-1","parameterCategory":2,"la1":30.2991,"la2":30.254,"lo1":-89.0895,"lo2":-89.0444,"dy":0.0017,"dx":0.0017,"nx":28,"ny":28,"refTime":"2024-07-02T03:00:00:Z","depth":"2","parameterNumber":2,"parameterNumberName":"U-component_of_CURRENTS"},"data":[0,0,0,0,0,0,0,0,0,0,0,0,0,0,0,0,0,0,0,0,0,0,0,0,0,0,0,0,0,0,0,0,0,0,0,0,0,0,0,0,0,0,0,0,0,0,0,0,0,0,0,0,0,0,0,0,0,0,-0.299,-0.2989,0,-0.3062,-0.3064,-0.3066,-0.3144,-0.3144,-0.3143,-0.3143,-0.3027,-0.3024,-0.3021,0,0,0,0,0,0,0,0,0,0,0,0,0,-0.2764,-0.277,-0.299,-0.2989,-0.2989,-0.3061,-0.3064,-0.3066,-0.3144,-0.3144,-0.3143,-0.3143,-0.3028,-0.3025,-0.3021,0,0,0,0,0,0,0,0,0,0,0,0,0,-0.2866,-0.2772,-0.299,-0.3025,-0.3028,-0.3061,-0.3064,-0.3067,-0.3144,-0.3144,-0.3143,-0.3143,-0.3029,-0.3025,-0.3021,-0.3002,0,0,-0.3008,-0.3006,0,0,0,0,0,0,0,0,-0.2861,-0.2877,-0.302,-0.3023,-0.3026,-0.308,-0.2941,-0.3031,-0.3144,-0.3116,-0.3143,-0.3143,-0.3017,-0.3014,-0.3053,-0.2997,-0.2992,-0.3007,-0.3005,-0.3003,-0.3002,0,0,0,0,0,0,0,-0.2854,-0.2873,-0.3034,-0.3019,-0.3023,-0.2983,-0.3,-0.296,-0.3076,-0.3118,-0.312,-0.3105,-0.302,-0.3057,-0.305,-0.299,-0.3007,-0.3004,-0.3001,-0.2999,-0.2939,-0.294,0,0,0,0,0,0,-0.2825,-0.2868,-0.3031,-0.3034,-0.2923,-0.2987,-0.3007,-0.3075,-0.3081,-0.3079,-0.3105,-0.3107,-0.3065,-0.3055,-0.3046,-0.3051,-0.3003,-0.2999,-0.2996,-0.2938,-0.2939,-0.294,0,0,0,0,0,0,-0.2821,-0.2842,-0.3028,-0.2934,-0.2953,-0.2991,-0.3067,-0.3077,-0.3134,-0.307,-0.3067,-0.3152,-0.3064,-0.3052,-0.3028,-0.3045,-0.2997,-0.2993,-0.2937,-0.2938,-0.294,-0.3042,0,0,0,0,0,0,-0.2816,-0.2843,-0.2915,-0.2936,-0.2957,-0.3065,-0.3066,-0.3078,-0.3115,-0.3122,-0.3108,-0.3097,-0.3063,-0.3035,-0.3024,-0.3038,-0.299,-0.2936,-0.2938,-0.2939,-0.3038,-0.3047,-0.3055,0,0,0,0,0,-0.2809,-0.2864,-0.2921,-0.2939,-0.3049,-0.3065,-0.3076,-0.3106,-0.3118,-0.3157,-0.3139,-0.3098,-0.3038,-0.3032,-0.3019,-0.3033,-0.2935,-0.2937,-0.2939,-0.3034,-0.3045,-0.3055,0,0,0,0,0,0,-0.279,-0.2877,-0.2939,-0.3022,-0.3059,-0.3073,-0.3098,-0.3121,-0.315,-0.3149,-0.3108,-0.3096,-0.3086,-0.3043,-0.3037,-0.3022,-0.298,-0.298,-0.3057,-0.3067,-0.3075,-0.3079,-0.2986,0,0,0,0,0,-0.2826,-0.29,-0.2963,-0.3026,-0.3055,-0.3094,-0.3114,-0.3133,-0.3135,-0.3153,-0.3135,-0.3108,-0.3084,-0.3063,-0.3037,-0.302,-0.2926,-0.302,-0.3029,-0.3037,-0.3032,-0.2918,-0.2915,-0.2947,-0.2947,-0.2947,0,0,-0.2849,-0.2881,-0.2942,-0.3027,-0.3065,-0.3112,-0.3111,-0.3137,-0.3169,-0.3124,-0.3162,-0.3138,-0.3089,-0.3085,-0.3074,-0.3048,-0.2975,-0.304,-0.3047,-0.3037,-0.292,-0.2916,-0.2913,-0.2949,-0.2949,-0.2948,0,0,-0.2862,-0.2955,-0.303,-0.3059,-0.3099,-0.3119,-0.3132,-0.3175,-0.3204,-0.3223,-0.3203,-0.3192,-0.3157,-0.3137,-0.3116,-0.315,-0.3031,-0.3142,-0.3179,-0.307,-0.3065,-0.306,-0.2917,-0.2898,-0.3139,-0.3139,-0.3139,0,-0.2878,-0.2979,-0.3041,-0.3083,-0.3086,-0.3128,-0.3168,-0.3212,-0.3234,-0.3223,-0.3238,-0.3197,-0.3182,-0.315,-0.3191,-0.317,-0.3068,-0.3146,-0.3079,-0.3072,-0.3065,-0.2919,-0.2897,-0.3144,-0.3143,-0.3143,-0.3142,0,-0.2928,-0.3022,-0.3035,-0.313,-0.3159,-0.3169,-0.3222,-0.3244,-0.3262,-0.3282,-0.3269,-0.3262,-0.3223,-0.3237,-0.3236,-0.3191,-0.3121,-0.3108,-0.3051,-0.3068,-0.2913,-0.2888,-0.3151,-0.315,-0.3148,-0.3147,0,0,-0.2909,-0.3056,-0.3057,-0.3108,-0.3164,-0.3174,-0.3215,-0.3239,-0.3229,-0.3278,-0.3246,-0.3285,-0.3277,-0.3256,-0.3248,-0.3192,-0.309,-0.3148,-0.3139,-0.3001,-0.2802,-0.2754,-0.272,-0.3056,-0.3053,-0.305,-0.2705,0,-0.2921,-0.2995,-0.3059,-0.3125,-0.3179,-0.3195,-0.3221,-0.3241,-0.3244,-0.3228,-0.3232,-0.3219,-0.3286,-0.3262,-0.3229,-0.312,-0.3033,-0.3182,-0.2809,-0.2797,-0.2749,-0.2695,-0.2549,-0.223,-0.268,-0.2676,-0.2673,0,-0.2942,-0.298,-0.3053,-0.312,-0.314,-0.3171,-0.3141,-0.3174,-0.3166,-0.3165,-0.3156,-0.3154,-0.3124,-0.3165,-0.2983,-0.3067,-0.2951,-0.2866,-0.2849,-0.2751,-0.2704,-0.2289,-0.2167,-0.263,-0.2634,-0.2637,-0.264,0,-0.2865,-0.2962,-0.3,-0.3021,-0.3117,-0.3113,-0.3134,-0.3139,-0.3121,-0.3114,-0.3069,-0.305,-0.2993,-0.289,-0.279,-0.2854,-0.2535,-0.2578,-0.2405,-0.2397,-0.2174,-0.2153,-0.2403,-0.2404,-0.2405,-0.2405,-0.2407,0,-0.2841,-0.2873,-0.2968,-0.2993,-0.2982,-0.3072,-0.3036,-0.305,-0.3035,-0.2984,-0.304,-0.2958,-0.2921,-0.2766,-0.2695,-0.2462,-0.2439,-0.2379,-0.2303,-0.2206,-0.2194,-0.2479,-0.2493,-0.2392,-0.2395,-0.2398,-0.24,0,-0.2796,-0.2871,-0.29,-0.2963,-0.2973,-0.296,-0.2967,-0.2935,-0.2952,-0.2865,-0.2857,-0.2819,-0.2638,-0.2549,-0.2323,-0.2292,-0.2102,-0.2014,-0.1902,-0.1824,-0.2053,-0.2076,-0.1771,-0.1767,-0.1763,-0.1759,-0.1757,0,-0.2786,-0.2807,-0.2831,-0.2825,-0.286,-0.2853,-0.2841,-0.2877,-0.2839,-0.2761,-0.2699,-0.2539,-0.2391,-0.2069,-0.1957,-0.1738,-0.1875,-0.1519,-0.1662,-0.203,-0.1987,-0.2016,-0.2044,-0.1369,-0.1363,-0.1358,-0.1355,0,-0.2732,-0.2728,-0.2747,-0.2713,-0.2708,-0.2682,-0.2675,-0.2634,-0.2649,-0.2564,-0.2406,-0.2275,-0.2,-0.1734,-0.1527,-0.1416,-0.1572,-0.1421,-0.1735,-0.1611,-0.1639,-0.1603,-0.1643,-0.1313,-0.1317,-0.132,-0.1322,-0.1324,-0.2637,-0.2609,-0.2609,-0.2569,-0.2559,-0.2515,-0.2448,-0.2434,-0.2339,-0.2178,-0.2133,-0.1873,-0.1775,-0.1384,-0.1218,-0.1096,-0.1228,-0.1201,-0.1219,-0.124,-0.1315,-0.1342,-0.0968,-0.0971,-0.0972,-0.0974,-0.0975,0,-0.2494,-0.2493,-0.2459,-0.2414,-0.2344,-0.2384,-0.2324,-0.2189,-0.2038,-0.1939,-0.1752,-0.1436,-0.1223,-0.1104,-0.0838,-0.078,-0.0805,-0.0757,-0.0807,-0.0846,-0.0881,-0.0945,-0.0494,-0.0493,-0.0492,-0.0492,0,0,-0.2421,-0.2356,-0.2344,-0.2206,-0.2176,-0.2045,-0.1986,-0.1762,-0.1639,-0.1398,-0.1257,-0.1256,-0.116,-0.0914,-0.0794,-0.0604,-0.0747,-0.0564,-0.0945,-0.1051,-0.1087,-0.1117,-0.1255,0,0,0,0,0]},{"header":{"parameterUnit":"m.s-1","parameterCategory":2,"la1":30.2991,"la2":30.254,"lo1":-89.0895,"lo2":-89.0444,"dy":0.0017,"dx":0.0017,"nx":28,"ny":28,"refTime":"2024-07-02T03:00:00:Z","depth":"2","parameterNumber":3,"parameterNumberName":"V-component_of_CURRENTS"},"data":[0,0,0,0,0,0,0,0,0,0,0,0,0,0,0,0,0,0,0,0,0,0,0,0,0,0,0,0,0,0,0,0,0,0,0,0,0,0,0,0,0,0,0,0,0,0,0,0,0,0,0,0,0,0,0,0,0,0,-0.015,-0.0147,0,0.0169,0.0174,0.0178,0.0283,0.0281,0.0278,0.0276,0.044,0.0446,0.0453,0,0,0,0,0,0,0,0,0,0,0,0,0,-0.0431,-0.0427,-0.015,-0.0147,-0.0144,0.0168,0.0174,0.0179,0.0284,0.0281,0.0278,0.0275,0.0438,0.0446,0.0454,0,0,0,0,0,0,0,0,0,0,0,0,0,-0.022,-0.0426,-0.0151,-0.0063,-0.0052,0.0167,0.0174,0.0181,0.0284,0.0281,0.0277,0.0274,0.0435,0.0445,0.0455,0.0588,0,0,0.0485,0.0489,0,0,0,0,0,0,0,0,-0.0233,-0.0209,-0.0079,-0.0069,-0.0057,0.0173,0.0134,0.0305,0.0285,0.0169,0.0276,0.0272,0.0331,0.035,0.0436,0.0596,0.0603,0.0486,0.0492,0.0496,0.0499,0,0,0,0,0,0,0,-0.0248,-0.0221,-0.0012,-0.0075,-0.0062,0.0041,0.0066,0.017,0.0272,0.0178,0.0184,0.0203,0.0337,0.0427,0.044,0.0605,0.0486,0.0494,0.05,0.0504,0.0766,0.0767,0,0,0,0,0,0,-0.0317,-0.0235,-0.0023,-0.0004,-0.0168,0.0047,0.0076,0.0112,0.0275,0.0294,0.0205,0.0206,0.0412,0.0428,0.0446,0.0487,0.0496,0.0505,0.0511,0.0765,0.0766,0.0767,0,0,0,0,0,0,-0.0324,-0.03,-0.0036,-0.0123,-0.0083,0.0053,0.0095,0.012,0.0184,0.0295,0.0313,0.0236,0.0409,0.0432,0.0522,0.0497,0.051,0.0519,0.0764,0.0766,0.0767,0.0648,0,0,0,0,0,0,-0.0333,-0.0304,-0.0288,-0.0127,-0.0082,0.0075,0.0098,0.0128,0.0196,0.02,0.0328,0.0342,0.0408,0.0507,0.0532,0.0511,0.0527,0.0763,0.0765,0.0766,0.0651,0.0646,0.0641,0,0,0,0,0,-0.0344,-0.0318,-0.0289,-0.0263,-0.0068,0.0076,0.0111,0.0203,0.02,0.0245,0.032,0.0337,0.0535,0.0518,0.0546,0.0527,0.0762,0.0764,0.0766,0.0653,0.0647,0.0641,0,0,0,0,0,0,-0.043,-0.0301,-0.0266,-0.0203,-0.0086,0.0088,0.0138,0.0195,0.0303,0.0289,0.0379,0.0401,0.0468,0.0531,0.0509,0.061,0.0641,0.0649,0.0545,0.054,0.0535,0.0503,0.0535,0,0,0,0,0,-0.0444,-0.0395,-0.0253,-0.0204,-0.015,-0.0008,0.006,0.0122,0.023,0.0275,0.0356,0.0436,0.0516,0.0547,0.0642,0.0713,0.0758,0.0714,0.0709,0.0703,0.0699,0.0716,0.071,0.0775,0.0775,0.0775,0,0,-0.0469,-0.0391,-0.0365,-0.022,-0.0119,-0.003,0.0027,0.0121,0.0181,0.0274,0.0366,0.0435,0.0537,0.0611,0.0642,0.0646,0.0722,0.0706,0.0701,0.0699,0.0718,0.0711,0.0705,0.0776,0.0776,0.0776,0,0,-0.0479,-0.0419,-0.037,-0.0279,-0.015,-0.0057,-0.0047,0.0113,0.0167,0.0272,0.0335,0.0388,0.0529,0.0587,0.0634,0.0666,0.0704,0.0679,0.0615,0.0631,0.0624,0.0619,0.0707,0.071,0.0661,0.0661,0.0661,0,-0.0514,-0.0436,-0.0333,-0.0258,-0.0203,-0.0087,-0.0026,0.0073,0.0231,0.0264,0.0269,0.0444,0.0517,0.059,0.0589,0.0648,0.0683,0.0619,0.0618,0.0614,0.061,0.0701,0.0706,0.0656,0.0656,0.0657,0.0658,0,-0.0476,-0.0416,-0.0383,-0.0261,-0.018,-0.0115,0.0012,0.0075,0.0123,0.021,0.0285,0.0392,0.0475,0.0499,0.0554,0.0568,0.0614,0.0613,0.0615,0.0595,0.0695,0.0702,0.0648,0.065,0.0652,0.0653,0,0,-0.0554,-0.0392,-0.0383,-0.0337,-0.0191,-0.012,-0.0046,0.0065,0.0093,0.0199,0.0233,0.035,0.0375,0.043,0.0491,0.0498,0.0516,0.0524,0.0528,0.0583,0.0592,0.0565,0.0572,0.0486,0.0486,0.0486,0.0685,0,-0.0559,-0.046,-0.0371,-0.0291,-0.0232,-0.0133,-0.0068,0.0031,0.0103,0.0168,0.0241,0.0311,0.036,0.0372,0.0389,0.0469,0.0522,0.0466,0.063,0.0637,0.0589,0.0574,0.0528,0.0693,0.0692,0.0693,0.0694,0,-0.0558,-0.049,-0.0424,-0.0316,-0.0283,-0.0236,-0.0157,-0.0077,0.0033,0.0082,0.0136,0.0215,0.0266,0.0296,0.0415,0.0363,0.048,0.055,0.0558,0.0573,0.0621,0.071,0.0706,0.0707,0.0706,0.0705,0.0704,0,-0.0665,-0.0537,-0.0504,-0.0462,-0.0315,-0.0303,-0.0242,-0.0131,-0.0074,0.0011,0.0037,0.0126,0.0156,0.0259,0.0392,0.0398,0.052,0.0557,0.0681,0.0686,0.0701,0.0704,0.0681,0.068,0.068,0.0679,0.0679,0,-0.071,-0.0682,-0.0565,-0.0538,-0.0517,-0.0397,-0.0372,-0.0295,-0.0201,-0.0147,-0.0033,0.0012,0.0132,0.0226,0.0366,0.0514,0.0507,0.0676,0.0712,0.0667,0.0664,0.071,0.0711,0.0687,0.0685,0.0684,0.0682,0,-0.0822,-0.0738,-0.0692,-0.0582,-0.056,-0.0555,-0.0455,-0.0422,-0.0331,-0.0271,-0.0251,-0.0096,0.0027,0.0187,0.0367,0.0477,0.0628,0.0714,0.068,0.0705,0.0821,0.0815,0.089,0.089,0.0891,0.0891,0.0891,0,-0.0868,-0.0854,-0.0761,-0.0747,-0.0708,-0.0676,-0.0642,-0.0518,-0.0471,-0.0327,-0.0304,-0.0162,-0.0029,0.0221,0.0409,0.0658,0.0684,0.0767,0.0767,0.0803,0.0833,0.0825,0.0819,0.0794,0.0793,0.0792,0.0792,0,-0.0959,-0.0935,-0.0893,-0.0866,-0.0842,-0.0795,-0.0743,-0.0725,-0.0576,-0.0523,-0.0417,-0.0301,-0.0006,0.0219,0.0514,0.065,0.0696,0.0764,0.0791,0.071,0.0717,0.0743,0.0739,0.0787,0.0787,0.0788,0.0788,0.0788,-0.1049,-0.1053,-0.1001,-0.0979,-0.0945,-0.0913,-0.0898,-0.0836,-0.0782,-0.0657,-0.0508,-0.0278,0.0012,0.0437,0.059,0.0713,0.0763,0.0814,0.0815,0.0817,0.0731,0.0732,0.0798,0.0798,0.0799,0.0799,0.0799,0,-0.1137,-0.1119,-0.1107,-0.1058,-0.1045,-0.0995,-0.0943,-0.0922,-0.0894,-0.0691,-0.0549,-0.0186,0.0138,0.0414,0.0621,0.0766,0.0758,0.0766,0.0741,0.0745,0.0749,0.0658,0.0708,0.0708,0.0708,0.0708,0,0,-0.1176,-0.1184,-0.1157,-0.115,-0.1123,-0.1095,-0.1074,-0.1039,-0.0893,-0.0745,-0.0506,-0.0129,0.0237,0.0388,0.0546,0.0617,0.0635,0.0608,0.0668,0.0621,0.0622,0.0763,0.0626,0,0,0,0,0]}],[{"header":{"parameterUnit":"m.s-1","parameterCategory":2,"la1":30.2991,"la2":30.254,"lo1":-89.0895,"lo2":-89.0444,"dy":0.0017,"dx":0.0017,"nx":28,"ny":28,"refTime":"2024-07-02T03:00:00:Z","depth":"4","parameterNumber":2,"parameterNumberName":"U-component_of_CURRENTS"},"data":[0,0,0,0,0,0,0,0,0,0,0,0,0,0,0,0,0,0,0,0,0,0,0,0,0,0,0,0,0,0,0,0,0,0,0,0,0,0,0,0,0,0,0,0,0,0,0,0,0,0,0,0,0,0,0,0,0,0,-0.1211,-0.1212,0,-0.124,-0.124,-0.124,-0.1261,-0.1262,-0.1262,-0.1263,-0.1315,-0.1316,-0.1317,0,0,0,0,0,0,0,0,0,0,0,0,0,-0.1175,-0.1175,-0.1211,-0.1212,-0.1213,-0.124,-0.124,-0.124,-0.1261,-0.1262,-0.1262,-0.1263,-0.1315,-0.1316,-0.1317,0,0,0,0,0,0,0,0,0,0,0,0,0,-0.119,-0.1175,-0.1211,-0.1231,-0.1234,-0.124,-0.124,-0.124,-0.126,-0.1262,-0.1263,-0.1264,-0.1315,-0.1316,-0.1317,-0.1301,0,0,-0.132,-0.1321,0,0,0,0,0,0,0,0,-0.1189,-0.1191,-0.1227,-0.123,-0.1233,-0.1254,-0.1247,-0.1264,-0.126,-0.1244,-0.1263,-0.1264,-0.13,-0.1302,-0.1296,-0.1303,-0.1306,-0.132,-0.1321,-0.1321,-0.1322,0,0,0,0,0,0,0,-0.1188,-0.119,-0.1216,-0.1228,-0.1232,-0.124,-0.1243,-0.125,-0.1261,-0.1245,-0.1248,-0.1261,-0.1301,-0.1295,-0.1298,-0.1306,-0.132,-0.1321,-0.1322,-0.1322,-0.1399,-0.14,0,0,0,0,0,0,-0.1196,-0.1189,-0.1215,-0.1218,-0.1221,-0.124,-0.1243,-0.1241,-0.126,-0.1266,-0.126,-0.1262,-0.1293,-0.1296,-0.13,-0.1387,-0.1321,-0.1322,-0.1323,-0.1398,-0.1399,-0.1401,0,0,0,0,0,0,-0.1195,-0.1197,-0.1214,-0.121,-0.1214,-0.124,-0.1237,-0.1241,-0.1264,-0.1273,-0.1278,-0.1285,-0.1294,-0.1298,-0.1342,-0.1386,-0.1323,-0.1324,-0.1396,-0.1398,-0.14,-0.1496,0,0,0,0,0,0,-0.1193,-0.1196,-0.1202,-0.121,-0.1214,-0.1238,-0.1237,-0.1241,-0.1272,-0.1275,-0.1295,-0.1299,-0.1295,-0.134,-0.1343,-0.1386,-0.1324,-0.1394,-0.1397,-0.14,-0.1491,-0.1501,-0.1509,0,0,0,0,0,-0.1191,-0.1199,-0.1202,-0.1206,-0.1219,-0.1239,-0.1242,-0.1261,-0.1272,-0.1285,-0.1309,-0.13,-0.1359,-0.1342,-0.1345,-0.139,-0.1393,-0.1396,-0.1399,-0.1487,-0.1499,-0.1509,0,0,0,0,0,0,-0.1188,-0.1202,-0.1206,-0.1217,-0.1236,-0.1246,-0.1264,-0.1276,-0.1301,-0.1314,-0.1318,-0.1324,-0.1383,-0.1366,-0.1348,-0.1418,-0.1374,-0.1378,-0.1439,-0.1451,-0.146,-0.1414,-0.1325,0,0,0,0,0,-0.1189,-0.1199,-0.1214,-0.1227,-0.1237,-0.1253,-0.1268,-0.1282,-0.1305,-0.1317,-0.1343,-0.1364,-0.1391,-0.1406,-0.1424,-0.1456,-0.1427,-0.1485,-0.1495,-0.1503,-0.1466,-0.149,-0.1499,-0.1411,-0.1411,-0.1411,0,0,-0.1193,-0.1204,-0.1209,-0.1228,-0.1242,-0.1258,-0.1264,-0.1295,-0.1323,-0.1319,-0.1378,-0.1405,-0.1409,-0.1457,-0.148,-0.1453,-0.1516,-0.1507,-0.1514,-0.1472,-0.1495,-0.1503,-0.151,-0.1414,-0.1413,-0.1413,0,0,-0.1199,-0.1214,-0.1219,-0.1235,-0.1267,-0.1282,-0.1299,-0.1332,-0.1362,-0.1409,-0.1428,-0.1475,-0.1509,-0.1527,-0.1535,-0.1599,-0.1572,-0.1619,-0.1624,-0.1651,-0.1657,-0.1663,-0.165,-0.1653,-0.1616,-0.1616,-0.1616,0,-0.1203,-0.1209,-0.1228,-0.1238,-0.126,-0.1297,-0.1314,-0.1345,-0.1397,-0.1431,-0.144,-0.1519,-0.1534,-0.1585,-0.1605,-0.1621,-0.1614,-0.1588,-0.1663,-0.1667,-0.1672,-0.1656,-0.1659,-0.1621,-0.162,-0.162,-0.1619,0,-0.1206,-0.1218,-0.1229,-0.1252,-0.1279,-0.1306,-0.135,-0.1403,-0.1451,-0.1481,-0.1563,-0.1589,-0.1628,-0.1656,-0.1642,-0.1693,-0.1672,-0.1683,-0.1634,-0.1686,-0.1667,-0.1668,-0.1628,-0.1626,-0.1625,-0.1624,0,0,-0.1189,-0.1223,-0.1228,-0.1239,-0.1292,-0.1311,-0.1379,-0.1442,-0.1486,-0.1554,-0.161,-0.1665,-0.1689,-0.1695,-0.1716,-0.1722,-0.1757,-0.1705,-0.1705,-0.1689,-0.1789,-0.1656,-0.1644,-0.1794,-0.1794,-0.1795,-0.1768,0,-0.1186,-0.1207,-0.1231,-0.1264,-0.1277,-0.1338,-0.139,-0.1457,-0.1522,-0.1591,-0.1646,-0.1703,-0.1705,-0.1734,-0.175,-0.1761,-0.1761,-0.176,-0.1739,-0.1737,-0.1612,-0.1641,-0.1796,-0.1768,-0.1769,-0.1769,-0.1769,0,-0.1171,-0.1191,-0.1218,-0.1265,-0.1279,-0.1312,-0.1407,-0.1458,-0.1561,-0.1611,-0.1683,-0.1728,-0.1775,-0.1764,-0.1791,-0.1795,-0.1782,-0.1774,-0.1774,-0.1602,-0.1604,-0.1702,-0.177,-0.177,-0.177,-0.177,-0.177,0,-0.1134,-0.1178,-0.1206,-0.122,-0.1282,-0.1323,-0.1374,-0.1471,-0.1517,-0.1629,-0.1666,-0.1747,-0.1779,-0.1797,-0.1793,-0.1802,-0.1791,-0.1817,-0.1679,-0.1669,-0.1756,-0.175,-0.181,-0.181,-0.181,-0.181,-0.181,0,-0.1094,-0.1119,-0.1194,-0.1196,-0.1236,-0.1301,-0.1356,-0.1422,-0.1516,-0.1554,-0.167,-0.1698,-0.1785,-0.1803,-0.1798,-0.1725,-0.1809,-0.1652,-0.165,-0.1798,-0.1797,-0.1757,-0.1751,-0.1809,-0.181,-0.181,-0.181,0,-0.1029,-0.1077,-0.1104,-0.118,-0.1205,-0.1236,-0.132,-0.1351,-0.146,-0.1514,-0.1551,-0.1665,-0.1683,-0.1733,-0.1749,-0.1704,-0.1671,-0.1622,-0.1746,-0.1756,-0.1528,-0.1528,-0.1466,-0.1461,-0.1457,-0.1453,-0.145,0,-0.0993,-0.1005,-0.1075,-0.1082,-0.1112,-0.1171,-0.1196,-0.1306,-0.134,-0.1469,-0.1475,-0.1546,-0.1602,-0.1519,-0.1587,-0.1567,-0.1548,-0.152,-0.1533,-0.1486,-0.1492,-0.1498,-0.1503,-0.1443,-0.1442,-0.1441,-0.144,0,-0.0928,-0.0969,-0.0986,-0.1002,-0.1022,-0.104,-0.1096,-0.1108,-0.1229,-0.1334,-0.1361,-0.1388,-0.1395,-0.1426,-0.141,-0.1402,-0.1541,-0.1476,-0.1485,-0.1497,-0.1458,-0.1469,-0.148,-0.1425,-0.1427,-0.1429,-0.143,0,-0.0886,-0.0886,-0.0915,-0.0918,-0.0929,-0.0907,-0.0948,-0.0986,-0.1034,-0.1189,-0.1186,-0.1274,-0.1367,-0.1336,-0.133,-0.1305,-0.1291,-0.1255,-0.1276,-0.1293,-0.125,-0.1177,-0.1032,0,0,0,0,0,-0.0838,-0.083,-0.0829,-0.0811,-0.0813,-0.0816,-0.0878,-0.0931,-0.1047,-0.1019,-0.1107,-0.1116,-0.1127,-0.1181,-0.1119,-0.1242,-0.1288,-0.1163,-0.1256,-0.1344,-0.1361,-0.1327,0,0,0,0,0,0,-0.0801,-0.0805,-0.0804,-0.0726,-0.0688,-0.0676,-0.0702,-0.0776,-0.0785,-0.0915,-0.0928,-0.1027,-0.1055,-0.1135,-0.1089,-0.11,-0.113,-0.1221,-0.1217,-0.1334,-0.1349,-0.1363,-0.1335,0,0,0,0,0]},{"header":{"parameterUnit":"m.s-1","parameterCategory":2,"la1":30.2991,"la2":30.254,"lo1":-89.0895,"lo2":-89.0444,"dy":0.0017,"dx":0.0017,"nx":28,"ny":28,"refTime":"2024-07-02T03:00:00:Z","depth":"4","parameterNumber":3,"parameterNumberName":"V-component_of_CURRENTS"},"data":[0,0,0,0,0,0,0,0,0,0,0,0,0,0,0,0,0,0,0,0,0,0,0,0,0,0,0,0,0,0,0,0,0,0,0,0,0,0,0,0,0,0,0,0,0,0,0,0,0,0,0,0,0,0,0,0,0,0,-0.0307,-0.0307,0,-0.0286,-0.0286,-0.0286,-0.0252,-0.0251,-0.025,-0.025,-0.0204,-0.0203,-0.0203,0,0,0,0,0,0,0,0,0,0,0,0,0,-0.0304,-0.0305,-0.0307,-0.0307,-0.0306,-0.0286,-0.0286,-0.0286,-0.0252,-0.0251,-0.025,-0.0249,-0.0204,-0.0203,-0.0203,0,0,0,0,0,0,0,0,0,0,0,0,0,-0.0298,-0.0305,-0.0307,-0.0286,-0.0284,-0.0286,-0.0286,-0.0286,-0.0252,-0.0251,-0.025,-0.0249,-0.0204,-0.0203,-0.0203,-0.0221,0,0,-0.02,-0.02,0,0,0,0,0,0,0,0,-0.0299,-0.0299,-0.0289,-0.0287,-0.0285,-0.0269,-0.0268,-0.0262,-0.0253,-0.0266,-0.025,-0.0248,-0.0223,-0.0221,-0.0222,-0.0219,-0.0217,-0.02,-0.02,-0.0199,-0.0199,0,0,0,0,0,0,0,-0.0299,-0.0299,-0.0301,-0.0289,-0.0286,-0.0272,-0.027,-0.0267,-0.0252,-0.0265,-0.0262,-0.0257,-0.0222,-0.0223,-0.0221,-0.0216,-0.02,-0.02,-0.0199,-0.0199,-0.0156,-0.0155,0,0,0,0,0,0,-0.03,-0.03,-0.0301,-0.03,-0.0287,-0.0273,-0.0271,-0.0277,-0.0253,-0.0248,-0.0258,-0.0256,-0.0225,-0.0221,-0.0219,-0.0203,-0.0199,-0.0199,-0.0198,-0.0157,-0.0156,-0.0155,0,0,0,0,0,0,-0.0301,-0.0301,-0.0302,-0.0297,-0.0296,-0.0274,-0.0281,-0.0277,-0.0276,-0.0247,-0.0242,-0.0261,-0.0224,-0.022,-0.021,-0.0202,-0.0198,-0.0198,-0.0158,-0.0157,-0.0156,-0.0195,0,0,0,0,0,0,-0.0301,-0.0302,-0.0314,-0.0298,-0.0296,-0.0306,-0.0281,-0.0277,-0.0274,-0.0271,-0.0248,-0.0243,-0.0222,-0.0211,-0.0209,-0.0201,-0.0197,-0.0158,-0.0157,-0.0156,-0.0194,-0.0195,-0.0196,0,0,0,0,0,-0.0301,-0.0321,-0.0315,-0.0315,-0.0311,-0.0307,-0.0306,-0.0287,-0.0276,-0.0281,-0.0259,-0.0243,-0.02,-0.0211,-0.0209,-0.02,-0.0159,-0.0158,-0.0156,-0.0194,-0.0195,-0.0196,0,0,0,0,0,0,-0.0325,-0.0319,-0.0311,-0.0329,-0.0319,-0.03,-0.0308,-0.0294,-0.0284,-0.0282,-0.0251,-0.0244,-0.0223,-0.021,-0.0222,-0.018,-0.0171,-0.0169,-0.0201,-0.0202,-0.0202,-0.0235,-0.0197,0,0,0,0,0,-0.0337,-0.0353,-0.0336,-0.0352,-0.0348,-0.033,-0.0329,-0.0317,-0.0302,-0.0297,-0.0277,-0.0249,-0.0217,-0.021,-0.0184,-0.0181,-0.0144,-0.0167,-0.0168,-0.0169,-0.0191,-0.0083,-0.0076,-0.015,-0.015,-0.015,0,0,-0.0351,-0.035,-0.0359,-0.0358,-0.0351,-0.0357,-0.0327,-0.0331,-0.0331,-0.0295,-0.0293,-0.0255,-0.0214,-0.0195,-0.0184,-0.0186,-0.0134,-0.0167,-0.0168,-0.019,-0.0081,-0.0073,-0.0067,-0.0149,-0.0149,-0.0149,0,0,-0.0386,-0.0385,-0.0408,-0.0404,-0.0398,-0.0386,-0.0388,-0.0372,-0.0359,-0.0359,-0.031,-0.0271,-0.0253,-0.0205,-0.0181,-0.0175,-0.0136,-0.0163,-0.0205,-0.0099,-0.0092,-0.0086,-0.006,-0.0051,-0.017,-0.017,-0.017,0,-0.0402,-0.0428,-0.0413,-0.043,-0.043,-0.04,-0.0417,-0.0403,-0.0384,-0.0367,-0.0364,-0.0283,-0.0254,-0.0194,-0.02,-0.0177,-0.014,-0.0207,-0.01,-0.0093,-0.0086,-0.006,-0.005,-0.0172,-0.0172,-0.0172,-0.0171,0,-0.0446,-0.0468,-0.048,-0.0491,-0.0489,-0.0501,-0.0474,-0.0466,-0.045,-0.0422,-0.0369,-0.0318,-0.0263,-0.0241,-0.0235,-0.0163,-0.0163,-0.0107,-0.0102,-0.0081,-0.0056,-0.0044,-0.0174,-0.0174,-0.0173,-0.0173,0,0,-0.048,-0.0507,-0.0513,-0.053,-0.0523,-0.0527,-0.0521,-0.0498,-0.0487,-0.0448,-0.0412,-0.0355,-0.031,-0.0281,-0.023,-0.0169,-0.0102,-0.0143,-0.0136,-0.0128,0.0073,0.0061,0.0073,-0.0019,-0.0017,-0.0014,0.0058,0,-0.0519,-0.0566,-0.0567,-0.0606,-0.0622,-0.0595,-0.0598,-0.0569,-0.053,-0.0488,-0.0398,-0.0351,-0.0324,-0.0298,-0.0223,-0.0114,-0.0069,-0.0132,0.0059,0.0062,0.0044,0.0089,-0.0006,0.0067,0.007,0.0072,0.0073,0,-0.0561,-0.0586,-0.0632,-0.0664,-0.067,-0.0689,-0.0672,-0.0666,-0.0587,-0.0557,-0.047,-0.0395,-0.0293,-0.0272,-0.0084,-0.0124,-0.0053,0.0018,0.0025,0.0033,0.0075,0.0052,0.0095,0.0093,0.0092,0.009,0.0089,0,-0.0585,-0.0634,-0.0673,-0.0682,-0.0707,-0.0723,-0.0731,-0.0684,-0.0674,-0.0581,-0.0558,-0.0405,-0.0329,-0.0187,-0.0044,-0.0057,0.0153,0.0179,0.0226,0.0223,0.0226,0.0219,0.0293,0.0293,0.0293,0.0293,0.0293,0,-0.062,-0.0659,-0.0694,-0.0715,-0.0767,-0.0765,-0.079,-0.0774,-0.0731,-0.0704,-0.0591,-0.0521,-0.0303,-0.0151,-0.0035,0.0135,0.0183,0.021,0.0259,0.0202,0.0192,0.0232,0.0224,0.0296,0.0295,0.0294,0.0294,0,-0.0642,-0.0667,-0.0718,-0.0761,-0.0782,-0.0813,-0.085,-0.0851,-0.0821,-0.0774,-0.0747,-0.0581,-0.037,-0.0173,0.0072,0.0143,0.0309,0.0346,0.0224,0.0265,0.0287,0.0276,0.0399,0.04,0.04,0.04,0.0401,0,-0.0657,-0.0682,-0.0748,-0.0781,-0.081,-0.0855,-0.0885,-0.0889,-0.0879,-0.0801,-0.0769,-0.0577,-0.0442,-0.0102,0.0092,0.0332,0.0352,0.0387,0.0357,0.0271,0.0306,0.0294,0.0283,0.0402,0.0402,0.0402,0.0402,0,-0.0674,-0.07,-0.0735,-0.0803,-0.0852,-0.0899,-0.0937,-0.0942,-0.092,-0.0901,-0.0752,-0.058,-0.0346,-0.0079,0.011,0.0275,0.035,0.0392,0.0391,0.0364,0.0276,0.0308,0.0296,0.0404,0.0403,0.0403,0.0403,0,-0.068,-0.0707,-0.0754,-0.0811,-0.0876,-0.0917,-0.0941,-0.0917,-0.0908,-0.0829,-0.0765,-0.0528,-0.0376,-0.011,0.0072,0.0241,0.0259,0.0254,0.026,0.026,0.0202,0.0069,0.0176,0,0,0,0,0,-0.0677,-0.0704,-0.0758,-0.0818,-0.0883,-0.0918,-0.0961,-0.0968,-0.0952,-0.0848,-0.081,-0.0587,-0.0296,-0.0153,0.002,0.0056,0.0267,0.0252,0.026,0.0413,0.0411,0.0367,0,0,0,0,0,0,-0.0675,-0.0722,-0.0747,-0.0808,-0.0848,-0.0913,-0.0939,-0.0931,-0.0865,-0.0822,-0.0635,-0.0583,-0.0263,-0.0363,0.0025,0.0072,0.0083,0.0394,0.0395,0.0414,0.0412,0.0411,0.0364,0,0,0,0,0]}]]